Location: Agadir Mansour Mhndou
(31.2424°N, 8.7730°W)
Time: 19:43:31
(UTC+00:00)

NOSS 3-1 (C) - Pass Details

Date: 16 October 2021
Orbit: 717 x 1491 km, 63.4° (Epoch: 25 November)

Event Time Altitude Azimuth Distance (km) Brightness Sun altitude
Rises 20:27:52 0° 228° (SW) 3,123 6.7 -31.9°
Reaches altitude 10° 20:30:16 10° 236° (WSW) 2,236 5.9 -32.4°
Maximum altitude 20:34:59 40° 306° (NW) 1,156 4.2 -33.4°
Enters shadow 20:35:06 40° 309° (NW) 1,159 4.2 -33.4°
